Showing default

FR 1, 1814

Orbit data source: Space-Track

FR 1, 1814 is a payload satellite owned by CNES (FR) in LEO that was launched on Mon, 06 Dec 1965 UTC via an SCOUT X-4 launch vehicle from the Air Force Western Test Range (AFWTR). Payloads include a variety of satellites, spacecraft, and rockets equipped with specific instruments for various scientific and technological missions. These include communications satellites like Starlink; space stations such as the ISS; scientific satellites like the Hubble; Earth observation satellites from companies like Planet Labs, Umbra, and HawkEye 360; GPS; miniature CubeSats for education and research; and military/defense satellites.

Loading next visibility...
FR 1 details
Identifier
1814, 1965-101A
Orbit
LEO
Last TLE update7 hours ago
Origin
Flag of FRCNES (FR)
ManufacturerNord
MissionCivil Science
Bus & MotorFR, Unknown motor
Mass62 kg wet, 62 kg dry
Launch date (UTC)
1965-12-06 (59 years ago)
Launch vehicle
SCOUT X-4
Launch site
Air Force Western Test Range (AFWTR)
Object type
Payload
Rocket body
Debris
Shape & HBRPoly + 4 Ant, 4.3 m
Radar Cross Section1.303 m², Medium (>0.1 m² and < 1m²)

Expand to show TLE details & history

TLE from 7 hours ago
0 FR 1
1  1814U 65101A   25037.78219571  .00002154  00000-0  35923-3 0  9991
2  1814  75.8669 125.1622 0005193 259.7578 100.3017 14.70319265  4281
Epoch: 2025-02-06T18:46Z
Definitive object data (Epoch: 2025-02-06T18:46:21.709Z)
Latitude-0.00009°
Longitude66.41788°
Altitude663.458 km
Speed7.525 km/s
True Right ascension08h 20m 38s
True Declination0° 00' 00"
Sunlit
Object was in full shadow at TLE epoch
Visualization TLE readout
Latitude7.72975°
Longitude67.89486°
Altitude663.312 km
Speed7.526 km/s
Apparent Right ascension11h 06m 00s
Apparent Declination-23° 02' 57"
Sunlit
Object is in full shadow
Visualization observer readout
Local Sidereal Time03:29:40
Azimuth94.042° ESE
Elevation-32.629°
Doppler factor1
Orbital elements
Apogee altitude661.139 km
Perigee altitude653.831 km
Semi-major axis7,035.622 km
Eccentricity0.0005193
Inclination75.8669°
RAAN125.1622°
Arg. of periapsis259.7578°
True anomaly100.36024°
Mean anomaly100.3017°
Eccentric anomaly100.33097°
Mean motion3.67781 °/min
BSTAR0.00035923
Orbital period97.88 mins
Loading maneuver chart data...
Loading historical data...
Loading historical data...
Loading historical data...
Loading historical data...
Loading historical data...
Loading historical data...
Loading historical data...

FR 1 Visibility forecast

Observer location: undefined°, undefined

Span
Click to sort rows by Start time (UTC) header in descending order
Start Az.
Max El. time (UTC)
Max El. Az.
Max El.
End time (UTC)
End Az.
7 mins2025-02-07 06:19:27.226Z165.899° S2025-02-07 06:23:27.226Z88.809° E32.469°2025-02-07 06:26:27.226Z37.022° NE
5 mins2025-02-07 08:00:27.226Z261.326° W2025-02-07 08:02:27.226Z291.464° WNW18.403°2025-02-07 08:05:27.226Z337.091° NNW
7 mins2025-02-07 16:34:27.226Z10.644° NNE2025-02-07 16:37:27.226Z74.787° E31.132°2025-02-07 16:41:27.226Z135.904° SSE
5 mins2025-02-07 18:14:27.226Z296.218° NW2025-02-07 18:16:27.226Z264.408° W18.652°2025-02-07 18:19:27.226Z221.337° SW
|